Year,Month,Day,Hour,Minute,Value (Times are PST for temperature in C)
2007,03,24,00,00,8.30
2007,03,24,00,01,8.30
2007,03,24,00,02,8.30
2007,03,24,00,03,8.30
2007,03,24,00,04,8.30
2007,03,24,00,05,8.30
2007,03,24,00,06,8.30
2007,03,24,00,07,8.30
2007,03,24,00,08,8.30
2007,03,24,00,09,8.30
2007,03,24,00,10,8.30
2007,03,24,00,11,8.30
2007,03,24,00,12,8.30
2007,03,24,00,13,8.30
2007,03,24,00,14,8.30
2007,03,24,00,15,8.30
2007,03,24,00,16,8.30
2007,03,24,00,17,8.30
2007,03,24,00,18,8.30
2007,03,24,00,19,8.30
2007,03,24,00,20,8.30
2007,03,24,00,21,8.30
2007,03,24,00,22,8.30
2007,03,24,00,23,8.30
2007,03,24,00,24,8.30
2007,03,24,00,25,8.30
2007,03,24,00,26,8.30
2007,03,24,00,27,8.30
2007,03,24,00,28,8.30
2007,03,24,00,29,8.30
2007,03,24,00,30,8.30
2007,03,24,00,31,8.30
2007,03,24,00,32,8.30
2007,03,24,00,33,8.30
2007,03,24,00,34,8.30
2007,03,24,00,35,8.30
2007,03,24,00,36,8.30
2007,03,24,00,37,8.30
2007,03,24,00,38,8.30
2007,03,24,00,39,8.30
2007,03,24,00,40,8.30
2007,03,24,00,41,8.30
2007,03,24,00,42,8.30
2007,03,24,00,43,8.30
2007,03,24,00,44,8.30
2007,03,24,00,45,8.30
2007,03,24,00,46,8.30
2007,03,24,00,47,8.30
2007,03,24,00,48,8.30
2007,03,24,00,49,8.30
2007,03,24,00,50,8.30
2007,03,24,00,51,8.30
2007,03,24,00,52,8.30
2007,03,24,00,53,8.30
2007,03,24,00,54,8.30
2007,03,24,00,55,8.30
2007,03,24,00,56,8.30
2007,03,24,00,57,8.30
2007,03,24,00,58,8.30
2007,03,24,00,59,8.30
2007,03,24,01,00,8.30
2007,03,24,01,01,8.30
2007,03,24,01,02,8.30
2007,03,24,01,03,8.30
2007,03,24,01,04,8.30
2007,03,24,01,05,8.30
2007,03,24,01,06,8.30
2007,03,24,01,07,8.30
2007,03,24,01,08,8.30
2007,03,24,01,09,8.30
2007,03,24,01,10,8.30
2007,03,24,01,11,8.30
2007,03,24,01,12,8.30
2007,03,24,01,13,8.30
2007,03,24,02,02,8.20
2007,03,24,02,03,8.20
2007,03,24,02,04,8.20
2007,03,24,02,05,8.20
2007,03,24,02,06,8.20
2007,03,24,02,07,8.30
2007,03,24,02,08,8.30
2007,03,24,02,09,8.30
2007,03,24,02,10,8.30
2007,03,24,02,11,8.30
2007,03,24,02,12,8.30
2007,03,24,02,13,8.30
2007,03,24,02,14,8.30
2007,03,24,02,15,8.30
2007,03,24,02,16,8.30
2007,03,24,02,17,8.30
2007,03,24,02,18,8.30
2007,03,24,02,19,8.30
2007,03,24,02,20,8.20
2007,03,24,02,21,8.20
2007,03,24,02,22,8.20
2007,03,24,02,23,8.20
2007,03,24,02,24,8.20
2007,03,24,02,25,8.20
2007,03,24,02,26,8.20
2007,03,24,02,27,8.20
2007,03,24,02,28,8.20
2007,03,24,02,29,8.20
2007,03,24,02,30,8.20
2007,03,24,02,31,8.20
2007,03,24,02,32,8.20
2007,03,24,02,33,8.20
2007,03,24,02,34,8.20
2007,03,24,02,35,8.20
2007,03,24,02,36,8.20
2007,03,24,02,37,8.20
2007,03,24,02,38,8.20
2007,03,24,02,39,8.20
2007,03,24,02,40,8.30
2007,03,24,02,41,8.30
2007,03,24,02,42,8.30
2007,03,24,02,43,8.30
2007,03,24,02,44,8.30
2007,03,24,02,45,8.30
2007,03,24,02,46,8.30
2007,03,24,02,47,8.30
2007,03,24,02,48,8.30
2007,03,24,02,49,8.30
2007,03,24,02,50,8.30
2007,03,24,02,51,8.30
2007,03,24,02,52,8.30
2007,03,24,02,53,8.30
2007,03,24,02,54,8.30
2007,03,24,02,55,8.30
2007,03,24,02,56,8.30
2007,03,24,02,57,8.30
2007,03,24,02,58,8.30
2007,03,24,02,59,8.30
2007,03,24,03,00,8.30
2007,03,24,03,01,8.30
2007,03,24,03,02,8.30
2007,03,24,03,03,8.30
2007,03,24,03,04,8.30
2007,03,24,03,05,8.30
2007,03,24,03,06,8.30
2007,03,24,03,07,8.30
2007,03,24,03,08,8.30
2007,03,24,03,09,8.30
2007,03,24,03,10,8.30
2007,03,24,03,11,8.30
2007,03,24,03,12,8.30
2007,03,24,03,13,8.30
2007,03,24,03,14,8.30
2007,03,24,03,15,8.30
2007,03,24,03,16,8.30
2007,03,24,03,17,8.30
2007,03,24,03,18,8.30
2007,03,24,03,19,8.30
2007,03,24,03,20,8.30
2007,03,24,03,21,8.30
2007,03,24,03,22,8.30
2007,03,24,03,23,8.30
2007,03,24,03,24,8.30
2007,03,24,03,25,8.30
2007,03,24,03,26,8.30
2007,03,24,03,27,8.30
2007,03,24,03,28,8.30
2007,03,24,03,29,8.30
2007,03,24,03,30,8.30
2007,03,24,03,31,8.30
2007,03,24,03,32,8.30
2007,03,24,03,33,8.30
2007,03,24,03,34,8.30
2007,03,24,03,35,8.30
2007,03,24,03,36,8.30
2007,03,24,03,37,8.40
2007,03,24,03,38,8.40
2007,03,24,03,39,8.40
2007,03,24,03,40,8.40
2007,03,24,03,41,8.40
2007,03,24,03,42,8.40
2007,03,24,03,43,8.40
2007,03,24,03,44,8.40
2007,03,24,03,45,8.40
2007,03,24,03,46,8.40
2007,03,24,03,47,8.40
2007,03,24,03,48,8.40
2007,03,24,03,49,8.40
2007,03,24,03,50,8.40
2007,03,24,03,51,8.40
2007,03,24,03,52,8.40
2007,03,24,03,53,8.40
2007,03,24,03,54,8.40
2007,03,24,03,55,8.40
2007,03,24,03,56,8.40
2007,03,24,03,57,8.40
2007,03,24,03,58,8.30
2007,03,24,03,59,8.30
2007,03,24,04,00,8.30
2007,03,24,04,01,8.30
2007,03,24,04,02,8.20
2007,03,24,04,03,8.20
2007,03,24,04,04,8.20
2007,03,24,04,05,8.20
2007,03,24,04,06,8.10
2007,03,24,04,07,8.10
2007,03,24,04,08,8.10
2007,03,24,04,09,8.10
2007,03,24,04,10,8.00
2007,03,24,04,11,8.00
2007,03,24,04,12,8.00
2007,03,24,04,13,8.00
2007,03,24,04,14,8.00
2007,03,24,04,15,8.00
2007,03,24,04,16,8.00
2007,03,24,04,17,7.90
2007,03,24,04,18,7.90
2007,03,24,04,19,7.90
2007,03,24,04,20,7.90
2007,03,24,04,21,7.90
2007,03,24,04,22,7.90
2007,03,24,04,23,7.90
2007,03,24,04,24,7.90
2007,03,24,04,25,7.90
2007,03,24,04,26,7.90
2007,03,24,04,27,7.90
2007,03,24,04,28,7.90
2007,03,24,04,29,7.80
2007,03,24,04,30,7.80
2007,03,24,04,31,7.80
2007,03,24,04,32,7.80
2007,03,24,04,33,7.80
2007,03,24,04,34,7.80
2007,03,24,04,35,7.80
2007,03,24,04,36,7.80
2007,03,24,04,37,7.80
2007,03,24,04,38,7.80
2007,03,24,04,39,7.80
2007,03,24,04,40,7.80
2007,03,24,04,41,7.80
2007,03,24,04,42,7.80
2007,03,24,04,43,7.80
2007,03,24,04,44,7.80
2007,03,24,04,45,7.80
2007,03,24,04,46,7.80
2007,03,24,04,47,7.80
2007,03,24,04,48,7.90
2007,03,24,04,49,7.90
2007,03,24,04,50,7.90
2007,03,24,04,51,7.90
2007,03,24,04,52,7.90
2007,03,24,04,53,7.90
2007,03,24,04,54,7.90
2007,03,24,04,55,7.90
2007,03,24,04,56,7.90
2007,03,24,04,57,7.90
2007,03,24,04,58,7.90
2007,03,24,04,59,7.90
2007,03,24,05,00,7.90
2007,03,24,05,01,8.00
2007,03,24,05,02,8.00
2007,03,24,05,03,8.00
2007,03,24,05,04,8.00
2007,03,24,05,05,8.00
2007,03,24,05,06,8.00
2007,03,24,05,07,8.00
2007,03,24,05,08,8.10
2007,03,24,05,09,8.00
2007,03,24,05,10,8.10
2007,03,24,05,11,8.10
2007,03,24,05,12,8.10
2007,03,24,05,13,8.10
2007,03,24,05,14,8.10
2007,03,24,05,15,8.10
2007,03,24,05,16,8.10
2007,03,24,05,17,8.10
2007,03,24,05,18,8.10
2007,03,24,05,19,8.10
2007,03,24,05,20,8.10
2007,03,24,05,21,8.10
2007,03,24,05,22,8.10
2007,03,24,05,23,8.10
2007,03,24,05,24,8.10
2007,03,24,05,25,8.10
2007,03,24,05,26,8.10
2007,03,24,05,27,8.10
2007,03,24,05,28,8.20
2007,03,24,05,29,8.20
2007,03,24,05,30,8.20
2007,03,24,05,31,8.20
2007,03,24,05,32,8.20
2007,03,24,05,33,8.20
2007,03,24,05,34,8.20
2007,03,24,05,35,8.20
2007,03,24,05,36,8.20
2007,03,24,05,37,8.20
2007,03,24,05,38,8.20
2007,03,24,05,39,8.20
2007,03,24,05,40,8.20
2007,03,24,05,41,8.20
2007,03,24,05,42,8.30
2007,03,24,05,43,8.30
2007,03,24,05,44,8.30
2007,03,24,05,45,8.30
2007,03,24,05,46,8.30
2007,03,24,05,47,8.30
2007,03,24,05,48,8.30
2007,03,24,05,49,8.30
2007,03,24,05,50,8.30
2007,03,24,05,51,8.30
2007,03,24,05,52,8.20
2007,03,24,05,53,8.20
2007,03,24,05,54,8.20
2007,03,24,05,55,8.20
2007,03,24,05,56,8.20
2007,03,24,05,57,8.20
2007,03,24,05,58,8.20
2007,03,24,05,59,8.20
2007,03,24,06,00,8.20
2007,03,24,06,01,8.20
2007,03,24,06,02,8.20
2007,03,24,06,03,8.20
2007,03,24,06,04,8.20
2007,03,24,06,05,8.20
2007,03,24,06,06,8.20
2007,03,24,06,07,8.20
2007,03,24,06,08,8.20
2007,03,24,06,09,8.20
2007,03,24,06,10,8.20
2007,03,24,06,11,8.20
2007,03,24,06,12,8.20
2007,03,24,06,13,8.20
2007,03,24,06,14,8.20
2007,03,24,06,15,8.20
2007,03,24,06,16,8.20
2007,03,24,06,17,8.20
2007,03,24,06,18,8.20
2007,03,24,06,19,8.20
2007,03,24,06,20,8.20
2007,03,24,06,21,8.20
2007,03,24,06,22,8.20
2007,03,24,06,23,8.20
2007,03,24,06,24,8.20
2007,03,24,06,25,8.20
2007,03,24,06,26,8.20
2007,03,24,06,27,8.20
2007,03,24,06,28,8.20
2007,03,24,06,29,8.20
2007,03,24,06,30,8.20
2007,03,24,06,31,8.20
2007,03,24,06,32,8.20
2007,03,24,06,33,8.20
2007,03,24,06,34,8.20
2007,03,24,06,35,8.20
2007,03,24,06,36,8.20
2007,03,24,06,37,8.20
2007,03,24,06,38,8.20
2007,03,24,06,39,8.20
2007,03,24,06,40,8.20
2007,03,24,06,41,8.20
2007,03,24,06,42,8.20
2007,03,24,06,43,8.20
2007,03,24,06,44,8.20
2007,03,24,06,45,8.20
2007,03,24,06,46,8.20
2007,03,24,06,47,8.20
2007,03,24,06,48,8.30
2007,03,24,06,49,8.30
2007,03,24,06,50,8.30
2007,03,24,06,51,8.30
2007,03,24,06,52,8.20
2007,03,24,06,53,8.20
2007,03,24,06,54,8.20
2007,03,24,06,55,8.20
2007,03,24,06,56,8.20
2007,03,24,06,57,8.20
2007,03,24,06,58,8.20
2007,03,24,06,59,8.20
2007,03,24,07,00,8.20
2007,03,24,07,01,8.10
2007,03,24,07,02,8.10
2007,03,24,07,03,8.10
2007,03,24,07,04,8.10
2007,03,24,07,05,8.10
2007,03,24,07,06,8.10
2007,03,24,07,07,8.10
2007,03,24,07,08,8.10
2007,03,24,07,09,8.10
2007,03,24,07,10,8.10
2007,03,24,07,11,8.10
2007,03,24,07,12,8.10
2007,03,24,07,13,8.10
2007,03,24,07,14,8.10
2007,03,24,07,15,8.10
2007,03,24,07,16,8.10
2007,03,24,07,17,8.10
2007,03,24,07,18,8.10
2007,03,24,07,19,8.10
2007,03,24,07,20,8.10
2007,03,24,07,21,8.10
2007,03,24,07,22,8.10
2007,03,24,07,23,8.10
2007,03,24,07,24,8.10
2007,03,24,07,25,8.10
2007,03,24,07,26,8.10
2007,03,24,07,27,8.10
2007,03,24,07,28,8.10
2007,03,24,07,29,8.10
2007,03,24,07,30,8.10
2007,03,24,07,31,8.10
2007,03,24,07,32,8.10
2007,03,24,07,33,8.10
2007,03,24,07,34,8.20
2007,03,24,07,35,8.20
2007,03,24,07,36,8.20
2007,03,24,07,37,8.20
2007,03,24,07,38,8.20
2007,03,24,07,39,8.20
2007,03,24,07,40,8.20
2007,03,24,07,41,8.20
2007,03,24,07,42,8.20
2007,03,24,07,43,8.20
2007,03,24,07,44,8.20
2007,03,24,07,45,8.20
2007,03,24,07,46,8.20
2007,03,24,07,47,8.20
2007,03,24,07,48,8.20
2007,03,24,07,49,8.20
2007,03,24,07,50,8.20
2007,03,24,07,51,8.20
2007,03,24,07,52,8.30
2007,03,24,07,53,8.30
2007,03,24,07,54,8.30
2007,03,24,07,55,8.30
2007,03,24,07,56,8.30
2007,03,24,07,57,8.30
2007,03,24,07,58,8.30
2007,03,24,07,59,8.30
2007,03,24,08,00,8.30
2007,03,24,08,01,8.30
2007,03,24,08,02,8.30
2007,03,24,08,03,8.30
2007,03,24,08,04,8.30
2007,03,24,08,05,8.30
2007,03,24,08,06,8.30
2007,03,24,08,07,8.30
2007,03,24,08,08,8.40
2007,03,24,08,09,8.40
2007,03,24,08,10,8.40
2007,03,24,08,11,8.40
2007,03,24,08,12,8.40
2007,03,24,08,13,8.40
2007,03,24,08,14,8.40
2007,03,24,08,15,8.40
2007,03,24,08,16,8.40
2007,03,24,08,17,8.50
2007,03,24,08,18,8.50
2007,03,24,08,19,8.50
2007,03,24,08,20,8.50
2007,03,24,08,21,8.50
2007,03,24,08,22,8.50
2007,03,24,08,23,8.50
2007,03,24,08,24,8.50
2007,03,24,08,25,8.50
2007,03,24,08,26,8.50
2007,03,24,08,27,8.50
2007,03,24,08,28,8.50
2007,03,24,08,29,8.50
2007,03,24,08,30,8.50
2007,03,24,08,31,8.50
2007,03,24,08,32,8.50
2007,03,24,08,33,8.40
2007,03,24,08,34,8.50
2007,03,24,08,35,8.40
2007,03,24,08,36,8.40
2007,03,24,08,37,8.50
2007,03,24,08,38,8.50
2007,03,24,08,39,8.50
2007,03,24,08,40,8.50
2007,03,24,08,41,8.50
2007,03,24,08,42,8.50
2007,03,24,08,43,8.50
2007,03,24,08,44,8.50
2007,03,24,08,45,8.50
2007,03,24,08,46,8.50
2007,03,24,08,47,8.50
2007,03,24,08,48,8.50
2007,03,24,08,49,8.50
2007,03,24,08,50,8.50
2007,03,24,08,51,8.50
2007,03,24,08,52,8.50
2007,03,24,08,53,8.50
2007,03,24,08,54,8.50
2007,03,24,08,55,8.60
2007,03,24,08,56,8.60
2007,03,24,08,57,8.60
2007,03,24,08,58,8.60
2007,03,24,08,59,8.60
2007,03,24,09,00,8.60
2007,03,24,09,01,8.60
2007,03,24,09,02,8.60
2007,03,24,09,03,8.60
2007,03,24,09,04,8.60
2007,03,24,09,05,8.60
2007,03,24,09,06,8.60
2007,03,24,09,07,8.60
2007,03,24,09,08,8.60
2007,03,24,09,09,8.60
2007,03,24,09,10,8.60
2007,03,24,09,11,8.60
2007,03,24,09,12,8.60
2007,03,24,09,13,8.60
2007,03,24,09,14,8.60
2007,03,24,09,15,8.60
2007,03,24,09,16,8.60
2007,03,24,09,17,8.60
2007,03,24,09,18,8.60
2007,03,24,09,19,8.60
2007,03,24,09,20,8.60
2007,03,24,09,21,8.60
2007,03,24,09,22,8.60
2007,03,24,09,23,8.60
2007,03,24,09,24,8.60
2007,03,24,09,25,8.60
2007,03,24,09,26,8.60
2007,03,24,09,27,8.60
2007,03,24,09,28,8.60
2007,03,24,09,29,8.60
2007,03,24,09,30,8.60
2007,03,24,09,31,8.60
2007,03,24,09,32,8.50
2007,03,24,09,33,8.50
2007,03,24,09,34,8.50
2007,03,24,09,35,8.50
2007,03,24,09,36,8.50
2007,03,24,09,37,8.50
2007,03,24,09,38,8.50
2007,03,24,09,39,8.50
2007,03,24,09,40,8.50
2007,03,24,09,41,8.50
2007,03,24,09,42,8.50
2007,03,24,09,43,8.50
2007,03,24,09,44,8.50
2007,03,24,09,45,8.50
2007,03,24,09,46,8.50
2007,03,24,09,47,8.50
2007,03,24,09,48,8.50
2007,03,24,09,49,8.50
2007,03,24,09,50,8.50
2007,03,24,09,51,8.50
2007,03,24,09,52,8.60
2007,03,24,09,53,8.60
2007,03,24,09,54,8.60
2007,03,24,09,55,8.60
2007,03,24,09,56,8.60
2007,03,24,09,57,8.60
2007,03,24,09,58,8.60
2007,03,24,09,59,8.60
2007,03,24,10,00,8.60
2007,03,24,10,01,8.60
2007,03,24,10,02,8.70
2007,03,24,10,03,8.70
2007,03,24,10,04,8.70
2007,03,24,10,05,8.70
2007,03,24,10,06,8.70
2007,03,24,10,07,8.70
2007,03,24,10,08,8.70
2007,03,24,10,09,8.70
2007,03,24,10,10,8.70
2007,03,24,10,11,8.70
2007,03,24,10,12,8.70
2007,03,24,10,13,8.70
2007,03,24,10,14,8.70
2007,03,24,10,15,8.70
2007,03,24,10,16,8.70
2007,03,24,10,17,8.70
2007,03,24,10,18,8.70
2007,03,24,10,19,8.70
2007,03,24,10,20,8.70
2007,03,24,10,21,8.80
2007,03,24,10,22,8.80
2007,03,24,10,23,8.80
2007,03,24,10,24,8.80
2007,03,24,10,25,8.80
2007,03,24,10,26,8.80
2007,03,24,10,27,8.80
2007,03,24,10,28,8.80
2007,03,24,10,29,8.80
2007,03,24,10,30,8.80
2007,03,24,10,31,8.80
2007,03,24,10,32,8.80
2007,03,24,10,33,8.80
2007,03,24,10,34,8.80
2007,03,24,10,35,8.80
2007,03,24,10,36,8.80
2007,03,24,10,37,8.90
2007,03,24,10,38,8.90
2007,03,24,10,39,8.90
2007,03,24,10,40,8.90
2007,03,24,10,41,8.90
2007,03,24,10,42,8.90
2007,03,24,10,43,9.00
2007,03,24,10,44,9.00
2007,03,24,10,45,9.00
2007,03,24,10,46,9.00
2007,03,24,10,47,9.10
2007,03,24,10,48,9.10
2007,03,24,10,49,9.10
2007,03,24,10,50,9.10
2007,03,24,10,51,9.10
2007,03,24,10,52,9.10
2007,03,24,10,53,9.10
2007,03,24,10,54,9.10
2007,03,24,10,55,9.10
2007,03,24,10,56,9.10
2007,03,24,10,57,9.10
2007,03,24,10,58,9.10
2007,03,24,10,59,9.10
2007,03,24,11,00,9.10
2007,03,24,11,01,9.10
2007,03,24,11,02,9.10
2007,03,24,11,03,9.10
2007,03,24,11,04,9.10
2007,03,24,11,05,9.10
2007,03,24,11,06,9.10
2007,03,24,11,07,9.10
2007,03,24,11,08,9.00
2007,03,24,11,09,9.00
2007,03,24,11,10,9.00
2007,03,24,11,11,9.00
2007,03,24,11,12,9.00
2007,03,24,11,13,9.00
2007,03,24,11,14,9.00
2007,03,24,11,15,9.00
2007,03,24,11,16,9.00
2007,03,24,11,17,9.00
2007,03,24,11,18,9.00
2007,03,24,11,19,9.00
2007,03,24,11,20,9.00
2007,03,24,11,21,9.00
2007,03,24,11,22,9.00
2007,03,24,11,23,9.00
2007,03,24,11,24,9.00
2007,03,24,11,25,9.00
2007,03,24,11,26,9.00
2007,03,24,11,27,9.00
2007,03,24,11,28,9.00
2007,03,24,11,29,9.00
2007,03,24,11,30,9.00
2007,03,24,11,31,9.00
2007,03,24,11,32,9.10
2007,03,24,11,33,9.10
2007,03,24,11,34,9.10
2007,03,24,11,35,9.10
2007,03,24,11,36,9.10
2007,03,24,11,37,9.10
2007,03,24,11,38,9.10
2007,03,24,11,39,9.10
2007,03,24,11,40,9.10
2007,03,24,11,41,9.10
2007,03,24,11,42,9.10
2007,03,24,11,43,9.10
2007,03,24,11,44,9.10
2007,03,24,11,45,9.10
2007,03,24,11,46,9.20
2007,03,24,11,47,9.20
2007,03,24,11,48,9.20
2007,03,24,11,49,9.20
2007,03,24,11,50,9.20
2007,03,24,11,51,9.20
2007,03,24,11,52,9.20
2007,03,24,11,53,9.20
2007,03,24,11,54,9.20
2007,03,24,11,55,9.20
2007,03,24,11,56,9.30
2007,03,24,11,57,9.30
2007,03,24,11,58,9.30
2007,03,24,11,59,9.30
2007,03,24,12,00,9.40
2007,03,24,12,01,9.40
2007,03,24,12,02,9.40
2007,03,24,12,03,9.40
2007,03,24,12,04,9.40
2007,03,24,12,05,9.40
2007,03,24,12,06,9.40
2007,03,24,12,07,9.40
2007,03,24,12,08,9.40
2007,03,24,12,09,9.40
2007,03,24,12,10,9.40
2007,03,24,12,11,9.50
2007,03,24,12,12,9.50
2007,03,24,12,13,9.50
2007,03,24,12,14,9.50
2007,03,24,12,15,9.50
2007,03,24,12,16,9.50
2007,03,24,12,17,9.50
2007,03,24,12,18,9.60
2007,03,24,12,19,9.50
2007,03,24,12,20,9.50
2007,03,24,12,21,9.50
2007,03,24,12,22,9.50
2007,03,24,12,23,9.50
2007,03,24,12,24,9.50
2007,03,24,12,25,9.50
2007,03,24,12,26,9.50
2007,03,24,12,27,9.50
2007,03,24,12,28,9.50
2007,03,24,12,29,9.50
2007,03,24,12,30,9.50
2007,03,24,12,31,9.50
2007,03,24,12,32,9.60
2007,03,24,12,33,9.60
2007,03,24,12,34,9.60
2007,03,24,12,35,9.60
2007,03,24,12,36,9.60
2007,03,24,12,37,9.60
2007,03,24,12,38,9.60
2007,03,24,12,39,9.60
2007,03,24,12,40,9.60
2007,03,24,12,41,9.60
2007,03,24,12,42,9.60
2007,03,24,12,43,9.60
2007,03,24,12,44,9.60
2007,03,24,12,45,9.60
2007,03,24,12,46,9.60
2007,03,24,12,47,9.60
2007,03,24,12,48,9.60
2007,03,24,12,49,9.60
2007,03,24,12,50,9.60
2007,03,24,12,51,9.60
2007,03,24,12,52,9.60
2007,03,24,12,53,9.60
2007,03,24,12,54,9.60
2007,03,24,12,55,9.60
2007,03,24,12,56,9.60
2007,03,24,12,57,9.60
2007,03,24,12,58,9.60
2007,03,24,12,59,9.60
2007,03,24,13,00,9.60
2007,03,24,13,01,9.70
2007,03,24,13,02,9.70
2007,03,24,13,03,9.70
2007,03,24,13,04,9.70
2007,03,24,13,05,9.70
2007,03,24,13,06,9.70
2007,03,24,13,07,9.60
2007,03,24,13,08,9.60
2007,03,24,13,09,9.60
2007,03,24,13,10,9.60
2007,03,24,13,11,9.60
2007,03,24,13,12,9.60
2007,03,24,13,13,9.60
2007,03,24,13,14,9.60
2007,03,24,13,15,9.60
2007,03,24,13,16,9.60
2007,03,24,13,17,9.60
2007,03,24,13,18,9.60
2007,03,24,13,19,9.60
2007,03,24,13,20,9.60
2007,03,24,13,21,9.60
2007,03,24,13,22,9.60
2007,03,24,13,23,9.60
2007,03,24,13,24,9.50
2007,03,24,13,25,9.50
2007,03,24,13,26,9.50
2007,03,24,13,27,9.50
2007,03,24,13,28,9.50
2007,03,24,13,29,9.50
2007,03,24,13,30,9.50
2007,03,24,13,31,9.50
2007,03,24,13,32,9.50
2007,03,24,13,33,9.60
2007,03,24,13,34,9.60
2007,03,24,13,35,9.60
2007,03,24,13,36,9.60
2007,03,24,13,37,9.60
2007,03,24,13,38,9.60
2007,03,24,13,39,9.60
2007,03,24,13,40,9.60
2007,03,24,13,41,9.60
2007,03,24,13,42,9.60
2007,03,24,13,43,9.60
2007,03,24,13,44,9.60
2007,03,24,13,45,9.60
2007,03,24,13,46,9.60
2007,03,24,13,47,9.60
2007,03,24,13,48,9.60
2007,03,24,13,49,9.60
2007,03,24,13,50,9.60
2007,03,24,13,51,9.60
2007,03,24,13,52,9.60
2007,03,24,13,53,9.60
2007,03,24,13,54,9.60
2007,03,24,13,55,9.60
2007,03,24,13,56,9.60
2007,03,24,13,57,9.50
2007,03,24,13,58,9.50
2007,03,24,13,59,9.50
2007,03,24,14,00,9.50
2007,03,24,14,01,9.50
2007,03,24,14,02,9.50
2007,03,24,14,03,9.50
2007,03,24,14,04,9.50
2007,03,24,14,05,9.50
2007,03,24,14,06,9.50
2007,03,24,14,07,9.40
2007,03,24,14,08,9.40
2007,03,24,14,09,9.40
2007,03,24,14,10,9.40
2007,03,24,14,11,9.40
2007,03,24,14,12,9.40
2007,03,24,14,13,9.40
2007,03,24,14,14,9.40
2007,03,24,14,15,9.40
2007,03,24,14,16,9.40
2007,03,24,14,17,9.40
2007,03,24,14,18,9.40
2007,03,24,14,19,9.40
2007,03,24,14,20,9.40
2007,03,24,14,21,9.40
2007,03,24,14,22,9.40
2007,03,24,14,23,9.40
2007,03,24,14,24,9.40
2007,03,24,14,25,9.40
2007,03,24,14,26,9.40
2007,03,24,14,27,9.40
2007,03,24,14,28,9.40
2007,03,24,14,29,9.40
2007,03,24,14,30,9.40
2007,03,24,14,31,9.40
2007,03,24,14,32,9.40
2007,03,24,14,33,9.40
2007,03,24,14,34,9.40
2007,03,24,14,35,9.40
2007,03,24,14,36,9.40
2007,03,24,14,37,9.40
2007,03,24,14,38,9.40
2007,03,24,14,39,9.40
2007,03,24,14,40,9.40
2007,03,24,14,41,9.40
2007,03,24,14,42,9.40
2007,03,24,14,43,9.40
2007,03,24,14,44,9.40
2007,03,24,14,45,9.40
2007,03,24,14,46,9.40
2007,03,24,14,47,9.40
2007,03,24,14,48,9.40
2007,03,24,14,49,9.40
2007,03,24,14,50,9.40
2007,03,24,14,51,9.40
2007,03,24,14,52,9.40
2007,03,24,14,53,9.40
2007,03,24,14,54,9.40
2007,03,24,14,55,9.40
2007,03,24,14,56,9.40
2007,03,24,14,57,9.40
2007,03,24,14,58,9.40
2007,03,24,14,59,9.40
2007,03,24,15,00,9.40
2007,03,24,15,01,9.40
2007,03,24,15,02,9.40
2007,03,24,15,03,9.40
2007,03,24,15,04,9.40
2007,03,24,15,05,9.40
2007,03,24,15,06,9.30
2007,03,24,15,07,9.30
2007,03,24,15,08,9.30
2007,03,24,15,09,9.30
2007,03,24,15,10,9.20
2007,03,24,15,11,9.20
2007,03,24,15,12,9.20
2007,03,24,15,13,9.20
2007,03,24,15,14,9.20
2007,03,24,15,15,9.10
2007,03,24,15,16,9.10
2007,03,24,15,17,9.10
2007,03,24,15,18,9.10
2007,03,24,15,19,9.10
2007,03,24,15,20,9.10
2007,03,24,15,21,9.10
2007,03,24,15,22,9.10
2007,03,24,15,23,9.10
2007,03,24,15,24,9.10
2007,03,24,15,25,9.00
2007,03,24,15,26,9.00
2007,03,24,15,27,9.00
2007,03,24,15,28,9.00
2007,03,24,15,29,8.90
2007,03,24,15,30,8.90
2007,03,24,15,31,8.90
2007,03,24,15,32,8.90
2007,03,24,15,33,8.90
2007,03,24,15,34,8.80
2007,03,24,15,35,8.80
2007,03,24,15,36,8.80
2007,03,24,15,37,8.80
2007,03,24,15,38,8.80
2007,03,24,15,39,8.80
2007,03,24,15,40,8.80
2007,03,24,15,41,8.80
2007,03,24,15,42,8.70
2007,03,24,15,43,8.70
2007,03,24,15,44,8.70
2007,03,24,15,45,8.70
2007,03,24,15,46,8.70
2007,03,24,15,47,8.70
2007,03,24,15,48,8.70
2007,03,24,15,49,8.70
2007,03,24,15,50,8.70
2007,03,24,15,51,8.70
2007,03,24,15,52,8.70
2007,03,24,15,53,8.70
2007,03,24,15,54,8.70
2007,03,24,15,55,8.70
2007,03,24,15,56,8.70
2007,03,24,15,57,8.70
2007,03,24,15,58,8.70
2007,03,24,15,59,8.70
2007,03,24,16,00,8.70
2007,03,24,16,01,8.70
2007,03,24,16,02,8.70
2007,03,24,16,03,8.70
2007,03,24,16,04,8.70
2007,03,24,16,05,8.70
2007,03,24,16,06,8.70
2007,03,24,16,07,8.70
2007,03,24,16,08,8.70
2007,03,24,16,09,8.70
2007,03,24,16,10,8.70
2007,03,24,16,11,8.70
2007,03,24,16,12,8.70
2007,03,24,16,13,8.70
2007,03,24,16,14,8.70
2007,03,24,16,15,8.70
2007,03,24,16,16,8.60
2007,03,24,16,17,8.60
2007,03,24,16,18,8.60
2007,03,24,16,19,8.60
2007,03,24,16,20,8.60
2007,03,24,16,21,8.60
2007,03,24,16,22,8.60
2007,03,24,16,23,8.60
2007,03,24,16,24,8.60
2007,03,24,16,25,8.60
2007,03,24,16,26,8.50
2007,03,24,16,27,8.60
2007,03,24,16,28,8.60
2007,03,24,16,29,8.60
2007,03,24,16,30,8.50
2007,03,24,16,31,8.50
2007,03,24,16,32,8.50
2007,03,24,16,33,8.50
2007,03,24,16,34,8.40
2007,03,24,16,35,8.40
2007,03,24,16,36,8.40
2007,03,24,16,37,8.40
2007,03,24,16,38,8.40
2007,03,24,16,39,8.40
2007,03,24,16,40,8.40
2007,03,24,16,41,8.40
2007,03,24,16,42,8.40
2007,03,24,16,43,8.30
2007,03,24,16,44,8.30
2007,03,24,16,45,8.30
2007,03,24,16,46,8.30
2007,03,24,16,47,8.30
2007,03,24,16,48,8.30
2007,03,24,16,49,8.30
2007,03,24,16,50,8.30
2007,03,24,16,51,8.30
2007,03,24,16,52,8.30
2007,03,24,16,53,8.30
2007,03,24,16,54,8.30
2007,03,24,16,55,8.30
2007,03,24,16,56,8.30
2007,03,24,16,57,8.30
2007,03,24,16,58,8.30
2007,03,24,16,59,8.30
2007,03,24,17,00,8.30
2007,03,24,17,01,8.30
2007,03,24,17,02,8.30
2007,03,24,17,03,8.30
2007,03,24,17,04,8.30
2007,03,24,17,05,8.20
2007,03,24,17,06,8.20
2007,03,24,17,07,8.20
2007,03,24,17,08,8.20
2007,03,24,17,09,8.20
2007,03,24,17,10,8.20
2007,03,24,17,11,8.20
2007,03,24,17,12,8.20
2007,03,24,17,13,8.20
2007,03,24,17,14,8.20
2007,03,24,17,15,8.20
2007,03,24,17,16,8.20
2007,03,24,17,17,8.20
2007,03,24,17,18,8.20
2007,03,24,17,19,8.20
2007,03,24,17,20,8.10
2007,03,24,17,21,8.10
2007,03,24,17,22,8.10
2007,03,24,17,23,8.10
2007,03,24,17,24,8.10
2007,03,24,17,25,8.10
2007,03,24,17,26,8.10
2007,03,24,17,27,8.10
2007,03,24,17,28,8.10
2007,03,24,17,29,8.10
2007,03,24,17,30,8.10
2007,03,24,17,31,8.10
2007,03,24,17,32,8.10
2007,03,24,17,33,8.10
2007,03,24,17,34,8.10
2007,03,24,17,35,8.10
2007,03,24,17,36,8.10
2007,03,24,17,37,8.10
2007,03,24,17,38,8.00
2007,03,24,17,39,8.00
2007,03,24,17,40,8.10
2007,03,24,17,41,8.10
2007,03,24,17,42,8.10
2007,03,24,17,43,8.00
2007,03,24,17,44,8.00
2007,03,24,17,45,8.00
2007,03,24,17,46,8.00
2007,03,24,17,47,8.00
2007,03,24,17,48,8.00
2007,03,24,17,49,8.00
2007,03,24,17,50,8.00
2007,03,24,17,51,8.00
2007,03,24,17,52,8.00
2007,03,24,17,53,8.00
2007,03,24,17,54,8.00
2007,03,24,17,55,8.10
2007,03,24,17,56,8.10
2007,03,24,17,57,8.10
2007,03,24,17,58,8.10
2007,03,24,17,59,8.10
2007,03,24,18,00,8.10
2007,03,24,18,01,8.10
2007,03,24,18,02,8.10
2007,03,24,18,03,8.10
2007,03,24,18,04,8.10
2007,03,24,18,05,8.10
2007,03,24,18,06,8.10
2007,03,24,18,07,8.10
2007,03,24,18,08,8.10
2007,03,24,18,09,8.10
2007,03,24,18,10,8.10
2007,03,24,18,11,8.10
2007,03,24,18,12,8.10
2007,03,24,18,13,8.10
2007,03,24,18,14,8.10
2007,03,24,18,15,8.10
2007,03,24,18,16,8.10
2007,03,24,18,17,8.10
2007,03,24,18,18,8.10
2007,03,24,18,19,8.10
2007,03,24,18,20,8.10
2007,03,24,18,21,8.10
2007,03,24,18,22,8.00
2007,03,24,18,23,8.00
2007,03,24,18,24,8.00
2007,03,24,18,25,8.00
2007,03,24,18,26,8.00
2007,03,24,18,27,8.00
2007,03,24,18,28,8.00
2007,03,24,18,29,8.00
2007,03,24,18,30,8.00
2007,03,24,18,31,8.00
2007,03,24,18,32,8.00
2007,03,24,18,33,8.00
2007,03,24,18,34,8.00
2007,03,24,18,35,8.00
2007,03,24,18,36,8.00
2007,03,24,18,37,8.10
2007,03,24,18,38,8.10
2007,03,24,18,39,8.10
2007,03,24,18,40,8.10
2007,03,24,18,41,8.10
2007,03,24,18,42,8.10
2007,03,24,18,43,8.00
2007,03,24,18,44,8.00
2007,03,24,18,45,8.00
2007,03,24,18,46,8.00
2007,03,24,18,47,8.00
2007,03,24,18,48,8.00
2007,03,24,18,49,8.00
2007,03,24,18,50,7.90
2007,03,24,18,51,7.90
2007,03,24,18,52,7.90
2007,03,24,18,53,7.90
2007,03,24,18,54,7.90